DW2150 Weather Reports


time (UTC)temp
C
wind
direction
speed
KPH
gust
KPH
rain 1hr
cm
rain 24hr
cm
rain mn
cm
humidity
%
barometer
mb
20260509071621 23 40 0.0 0.0 0.00 0.00 0.00 95 1010.2
20260509071028 23 40 0.0 0.0 0.00 0.00 0.00 95 1010.2
20260509070525 23 40 0.0 0.0 0.00 0.00 0.00 95 1010.2
20260509070003 23 40 0.0 0.0 0.00 0.00 0.00 95 1010.2
20260509065429 23 40 0.0 0.0 0.00 0.00 0.00 95 1010.2
20260509064926 23 40 0.0 0.0 0.00 0.00 0.00 95 1010.2
20260509064423 23 40 0.0 0.0 0.00 0.00 0.00 95 1009.8
20260509063849 23 40 0.0 0.0 0.00 0.00 0.00 95 1010.2
20260509063346 23 40 0.0 0.0 0.00 0.00 0.00 95 1010.2
20260509062843 23 40 0.0 0.0 0.00 0.00 0.00 95 1010.2
20260509062338 23 40 0.0 0.0 0.00 0.00 0.00 95 1010.5
20260509061835 23 40 0.0 0.0 0.00 0.00 0.00 95 1010.2
20260509061332 23 40 0.0 0.0 0.00 0.00 0.00 95 1010.2
20260509060829 23 40 0.0 0.0 0.00 0.00 0.00 95 1010.2
20260509060326 23 40 0.0 0.0 0.00 0.00 0.00 95 1010.2
20260509055823 23 40 0.0 0.0 0.00 0.00 0.00 95 1010.2
20260509055320 23 40 0.0 0.0 0.00 0.00 0.00 95 1010.2
20260509054817 23 40 0.0 0.0 0.00 0.00 0.00 95 1010.2
20260509054314 23 40 0.0 0.0 0.00 0.00 0.00 95 1010.2
20260509053740 23 40 0.0 0.0 0.00 0.00 0.00 95 1010.5
20260509053205 23 40 0.0 0.0 0.00 0.00 0.00 95 1010.5
20260509052702 23 40 0.0 0.0 0.00 0.00 0.00 95 1010.5
20260509052159 23 40 0.0 0.0 0.00 0.00 0.00 95 1010.5
20260509051656 23 40 0.0 0.0 0.00 0.00 0.00 94 1010.5
20260509051134 23 40 0.0 0.0 0.00 0.00 0.00 94 1010.5
20260509050632 23 40 0.0 0.0 0.00 0.00 0.00 94 1010.5
20260509050027 23 40 0.0 0.0 0.00 0.00 0.00 94 1010.8
20260509045350 23 40 0.0 0.0 0.00 0.00 0.00 94 1010.8
20260509044846 23 40 0.0 0.0 0.00 0.00 0.00 94 1010.8
20260509044344 23 40 0.0 0.0 0.00 0.00 0.00 94 1010.8
20260509043841 23 40 0.0 0.0 0.00 0.00 0.00 94 1010.8
20260509043338 23 40 0.0 0.0 0.00 0.00 0.00 94 1010.8
20260509042835 23 40 0.0 0.0 0.00 0.00 0.00 94 1010.8
20260509042332 23 40 0.0 0.0 0.00 0.00 0.00 94 1010.8
20260509041830 23 40 0.0 0.0 0.00 0.00 0.00 94 1010.5
20260509041327 23 40 0.0 0.0 0.00 0.00 0.00 94 1010.8
20260509040823 23 40 0.0 0.0 0.00 0.00 0.00 94 1010.8
20260509040320 23 40 0.0 0.0 0.00 0.00 0.00 94 1010.8
20260509035818 23 40 0.0 0.0 0.00 0.00 0.00 94 1010.5
20260509035315 23 40 0.0 0.0 0.00 0.00 0.00 94 1010.2
20260509034811 23 40 0.0 0.0 0.00 0.00 0.00 94 1010.5
20260509034308 23 40 0.0 0.0 0.00 0.00 0.00 94 1010.2
20260509033734 23 40 0.0 0.0 0.00 0.00 0.00 94 1010.2
20260509033231 23 40 0.0 0.0 0.00 0.00 0.00 94 1010.2
20260509032728 23 40 0.0 0.0 0.00 0.00 0.00 94 1010.2
20260509032225 23 40 0.0 0.0 0.00 0.00 0.00 94 1010.2
20260509031722 23 38 0.0 0.0 0.00 0.00 0.00 94 1010.2
20260509031219 23 36 0.0 0.0 0.00 0.00 0.00 94 1010.2
20260509030716 23 28 0.0 1.6 0.00 0.00 0.00 94 1010.2
20260509030213 23 28 0.0 6.4 0.00 0.00 0.00 94 1010.2
20260509025710 23 28 0.0 6.4 0.00 0.00 0.00 94 1010.2
20260509025207 23 28 0.0 6.4 0.00 0.00 0.00 94 1010.2
20260509024704 23 36 1.6 6.4 0.00 0.00 0.00 94 1009.8
20260509024201 23 95 1.6 1.6 0.00 0.00 0.00 94 1009.8
20260509023658 23 45 0.0 0.0 0.00 0.00 0.00 94 1009.8
20260509023155 23 355 0.0 3.2 0.00 0.00 0.00 94 1009.8
20260509022652 23 69 0.0 4.8 0.00 0.00 0.00 94 1010.2
20260509022117 23 69 0.0 4.8 0.00 0.00 0.00 94 1010.2
20260509021543 23 34 1.6 4.8 0.00 0.00 0.00 94 1009.8
20260509021039 23 23 1.6 6.4 0.00 0.00 0.00 94 1009.5
20260509020536 23 121 1.6 11.3 0.00 0.00 0.00 94 1009.5
20260509020032 23 53 1.6 11.3 0.00 0.00 0.00 94 1009.5
20260509015530 23 51 1.6 11.3 0.00 0.00 0.00 94 1009.5
20260509015027 23 34 1.6 11.3 0.00 0.00 0.00 94 1009.5
20260509014524 23 38 3.2 6.4 0.00 0.00 0.00 94 1009.1
20260509014021 23 58 3.2 6.4 0.00 0.00 0.00 94 1009.1
20260509013519 23 69 1.6 4.8 0.00 0.00 0.00 93 1009.5
20260509012945 23 41 3.2 4.8 0.00 0.00 0.00 93 1009.5
20260509012404 23 24 1.6 6.4 0.00 0.00 0.00 93 1009.5
20260509011901 23 24 1.6 8.0 0.00 0.00 0.00 93 1009.5
20260509011358 23 59 1.6 8.0 0.00 0.00 0.00 93 1009.8
20260509010856 23 59 0.0 8.0 0.00 0.00 0.00 93 1009.8
20260509010353 23 61 1.6 3.2 0.00 0.00 0.00 93 1009.5
20260509005850 23 79 1.6 3.2 0.00 0.00 0.00 93 1009.5
20260509005347 23 12 1.6 3.2 0.00 0.00 0.00 93 1009.5
20260509004845 23 19 1.6 4.8 0.00 0.00 0.00 93 1009.5
20260509004311 23 53 1.6 4.8 0.00 0.00 0.00 93 1009.8
20260509003737 23 61 1.6 16.1 0.00 0.00 0.00 93 1009.8
20260509003202 23 59 3.2 16.1 0.00 0.00 0.00 93 1009.8
20260509002659 23 25 1.6 16.1 0.00 0.00 0.00 93 1009.8
20260509002156 23 44 3.2 16.1 0.00 0.00 0.00 93 1009.1
20260509001653 23 59 1.6 9.7 0.00 0.00 0.00 93 1008.8
20260509001150 23 63 3.2 8.0 0.00 0.00 0.00 93 1008.8
20260509000616 23 45 1.6 9.7 0.00 0.00 0.00 92 1009.1
20260509000113 23 64 3.2 9.7 0.00 0.00 0.00 92 1009.5
20260508235549 23 34 1.6 6.4 0.00 0.00 0.00 92 1009.5
20260508235047 23 43 3.2 8.0 0.00 0.00 0.00 92 1009.8
20260508234512 23 38 0.0 8.0 0.00 0.00 0.00 92 1010.2
20260508233938 23 64 3.2 4.8 0.00 0.00 0.00 92 1010.2
20260508233435 23 12 1.6 4.8 0.00 0.00 0.00 92 1009.8
20260508232932 23 71 1.6 6.4 0.00 0.00 0.00 92 1009.5
20260508232429 23 63 3.2 6.4 0.00 0.00 0.00 92 1009.5
20260508231926 23 41 3.2 6.4 0.00 0.00 0.00 91 1009.5
20260508231423 23 45 3.2 12.9 0.00 0.00 0.00 91 1009.8
20260508230920 24 36 3.2 12.9 0.00 0.00 0.00 91 1009.8
20260508230417 24 37 3.2 12.9 0.00 0.00 0.00 91 1009.8
20260508225914 24 60 3.2 12.9 0.00 0.00 0.00 91 1009.5
20260508225411 24 48 3.2 9.7 0.00 0.00 0.00 91 1009.5
20260508224908 24 24 3.2 9.7 0.00 0.00 0.00 91 1009.5
20260508224405 24 35 3.2 9.7 0.00 0.00 0.00 91 1009.5
20260508223902 24 41 1.6 8.0 0.00 0.00 0.00 91 1009.5
20260508223359 24 39 3.2 8.0 0.00 0.00 0.00 91 1009.5
20260508222824 24 52 3.2 8.0 0.00 0.00 0.00 91 1009.5
20260508222320 24 26 3.2 9.7 0.00 0.00 0.00 91 1009.8
20260508221817 24 39 1.6 9.7 0.00 0.00 0.00 91 1009.8
20260508221314 23 52 3.2 9.7 0.00 0.00 0.00 91 1009.8
20260508220812 23 38 3.2 9.7 0.00 0.00 0.00 91 1009.8
20260508220308 23 24 1.6 6.4 0.00 0.00 0.00 91 1009.8
20260508215806 23 50 3.2 6.4 0.00 0.00 0.00 91 1009.8
20260508215306 23 46 1.6 6.4 0.00 0.00 0.00 91 1009.8
20260508214759 23 5 1.6 8.0 0.00 0.00 0.00 90 1010.2
20260508214154 23 354 1.6 8.0 0.00 0.00 0.00 90 1010.2
20260508213651 23 52 1.6 8.0 0.00 0.00 0.00 90 1009.8
20260508213117 23 52 1.6 8.0 0.00 0.00 0.00 91 1010.2
20260508212614 23 27 1.6 8.0 0.00 0.00 0.00 90 1010.2
20260508212040 23 355 3.2 6.4 0.00 0.00 0.00 91 1010.2
20260508211537 23 32 1.6 8.0 0.00 0.00 0.00 91 1009.8
20260508211034 23 64 3.2 8.0 0.00 0.00 0.00 90 1010.2
20260508210531 23 65 3.2 8.0 0.00 0.00 0.00 90 1010.2
20260508210028 23 64 3.2 8.0 0.00 0.00 0.00 90 1010.2
20260508205525 23 50 1.6 6.4 0.00 0.00 0.00 90 1010.2
20260508205023 23 22 0.0 8.0 0.00 0.00 0.00 90 1010.2
20260508204519 23 11 1.6 8.0 0.00 0.00 0.00 90 1010.2
20260508204016 23 32 3.2 8.0 0.00 0.00 0.00 90 1010.2
20260508203513 23 55 3.2 6.4 0.00 0.00 0.00 90 1010.2
20260508202952 23 50 1.6 8.0 0.00 0.00 0.00 90 1010.5
20260508202449 23 40 1.6 8.0 0.00 0.00 0.00 91 1010.5
20260508201946 23 23 0.0 8.0 0.00 0.00 0.00 90 1010.8
20260508201443 23 28 3.2 8.0 0.00 0.00 0.00 90 1010.5
20260508200940 23 71 3.2 8.0 0.00 0.00 0.00 91 1010.8
20260508200436 23 53 1.6 8.0 0.00 0.00 0.00 91 1010.8
20260508195933 23 43 3.2 8.0 0.00 0.00 0.00 91 1010.8
20260508195431 23 33 3.2 8.0 0.00 0.00 0.00 91 1010.8
20260508194927 23 53 1.6 8.0 0.00 0.00 0.00 92 1011.2
20260508194424 22 30 1.6 12.9 0.00 0.00 0.00 92 1011.2
20260508193921 22 49 3.2 12.9 0.00 0.00 0.00 92 1010.8
20260508193418 22 47 3.2 12.9 0.00 0.00 0.00 93 1010.8
20260508192915 22 47 3.2 11.3 0.00 0.00 0.00 93 1010.8
20260508192340 22 52 3.2 11.3 0.00 0.00 0.00 93 1010.8
20260508191838 22 52 3.2 11.3 0.00 0.00 0.00 94 1010.8
20260508191334 21 38 3.2 12.9 0.00 0.00 0.00 94 1010.8
20260508190831 21 60 4.8 12.9 0.00 0.00 0.00 94 1010.8
20260508190310 21 50 3.2 12.9 0.00 0.00 0.00 95 1011.2
20260508185807 21 39 3.2 12.9 0.00 0.00 0.00 95 1011.2
20260508185306 21 17 3.2 9.7 0.00 0.00 0.00 95 1011.2
20260508184801 21 45 4.8 9.7 0.00 0.00 0.00 95 1011.2
20260508184258 20 47 3.2 9.7 0.00 0.00 0.00 94 1011.2
20260508183755 20 62 1.6 8.0 0.00 0.00 0.00 94 1011.9
20260508183252 20 74 1.6 12.9 0.00 0.00 0.00 94 1011.9
20260508182749 20 53 3.2 14.5 0.00 0.00 0.00 94 1011.9
20260508182245 20 31 3.2 14.5 0.00 0.00 0.00 94 1011.9
20260508181742 20 37 3.2 16.1 0.00 0.00 0.00 94 1011.9
20260508181208 20 57 4.8 16.1 0.00 0.00 0.00 94 1011.9
20260508180633 20 30 3.2 8.0 0.00 0.00 0.00 94 1011.9
20260508180059 20 0 3.2 11.3 0.00 0.00 0.00 94 1011.9
20260508175538 20 80 0.0 11.3 0.00 0.00 0.00 94 1012.2
20260508175034 20 51 4.8 11.3 0.00 0.00 0.00 94 1012.2
20260508174531 20 34 3.2 11.3 0.00 0.00 0.00 94 1012.2
20260508174028 20 41 3.2 12.9 0.00 0.00 0.00 94 1012.2
20260508173525 20 61 4.8 12.9 0.00 0.00 0.00 94 1012.2
20260508173022 20 55 4.8 11.3 0.00 0.00 0.00 94 1011.9
20260508172519 20 70 3.2 9.7 0.00 0.00 0.00 94 1011.9
20260508172011 20 29 3.2 8.0 0.00 0.00 0.00 94 1012.2
20260508171508 20 15 1.6 9.7 0.00 0.00 0.00 94 1012.2
20260508170935 20 20 1.6 9.7 0.00 0.00 0.00 94 1012.5
20260508170432 20 73 3.2 9.7 0.00 0.00 0.00 93 1012.5
20260508165839 20 36 3.2 9.7 0.00 0.00 0.00 93 1012.9
20260508165336 20 29 3.2 11.3 0.00 0.00 0.00 93 1012.9
20260508164833 20 46 1.6 11.3 0.00 0.00 0.00 93 1012.9
20260508164329 20 42 3.2 11.3 0.00 0.00 0.00 93 1012.9
20260508163754 20 43 3.2 11.3 0.00 0.00 0.00 93 1012.9
20260508163251 20 36 3.2 11.3 0.00 0.00 0.00 93 1012.9
20260508162748 20 36 3.2 11.3 0.00 0.00 0.00 93 1013.2
20260508162245 20 62 4.8 11.3 0.00 0.00 0.00 93 1013.2
20260508161741 20 57 3.2 8.0 0.00 0.00 0.00 93 1013.2
20260508161239 20 85 1.6 12.9 0.00 0.00 0.00 93 1013.5
20260508160735 20 6 3.2 12.9 0.00 0.00 0.00 93 1013.2
20260508160232 20 28 3.2 12.9 0.00 0.00 0.00 93 1013.2
20260508155626 20 62 4.8 12.9 0.00 0.00 0.00 93 1013.5
20260508155123 20 72 4.8 11.3 0.00 0.00 0.00 93 1013.5
20260508154549 20 48 3.2 9.7 0.00 0.00 0.00 93 1013.5
20260508154046 20 63 0.0 8.0 0.00 0.00 0.00 94 1013.5
20260508153543 20 8 4.8 11.3 0.00 0.00 0.00 94 1013.5
20260508153039 20 67 4.8 11.3 0.00 0.00 0.00 93 1013.5
20260508152449 20 9 3.2 12.9 0.00 0.00 0.00 93 1013.5
20260508151946 20 55 4.8 12.9 0.00 0.00 0.00 93 1013.2
20260508151444 20 44 3.2 12.9 0.00 0.00 0.00 94 1013.2
20260508150940 20 25 4.8 12.9 0.00 0.00 0.00 93 1013.2
20260508150438 20 43 4.8 9.7 0.00 0.00 0.00 94 1013.2
20260508145913 20 40 4.8 12.9 0.00 0.00 0.00 94 1013.2
20260508145410 20 44 3.2 12.9 0.00 0.00 0.00 93 1013.5
20260508144907 20 21 3.2 12.9 0.00 0.00 0.00 93 1013.2
20260508144404 20 43 3.2 6.4 0.00 0.00 0.00 93 1013.2
20260508143902 20 54 1.6 4.8 0.00 0.00 0.00 93 1013.5
20260508143359 20 38 3.2 4.8 0.00 0.00 0.00 93 1013.5
20260508142856 20 41 1.6 8.0 0.00 0.00 0.00 93 1013.5
20260508142337 20 49 1.6 8.0 0.00 0.00 0.00 93 1013.9
20260508141835 20 5 1.6 8.0 0.00 0.00 0.00 93 1013.5
20260508141313 20 34 3.2 8.0 0.00 0.00 0.00 93 1013.2
20260508140751 20 49 1.6 6.4 0.00 0.00 0.00 93 1013.2
20260508140229 20 23 1.6 6.4 0.00 0.00 0.00 93 1013.2
20260508135726 20 14 1.6 6.4 0.00 0.00 0.00 93 1013.2
20260508135223 20 72 3.2 6.4 0.00 0.00 0.00 93 1013.2
20260508134720 20 34 0.0 8.0 0.00 0.00 0.00 93 1013.2
20260508134217 20 62 0.0 9.7 0.00 0.00 0.00 93 1013.2
20260508133714 20 30 3.2 9.7 0.00 0.00 0.00 93 1013.2
20260508133211 20 30 1.6 3.2 0.00 0.00 0.00 93 1013.2
20260508132708 20 35 0.0 6.4 0.00 0.00 0.00 93 1013.2
20260508132103 20 35 0.0 8.0 0.00 0.00 0.00 93 1013.5
20260508131528 20 57 0.0 11.3 0.00 0.00 0.00 93 1013.5
20260508130954 20 18 3.2 11.3 0.00 0.00 0.00 93 1013.2
20260508130432 20 27 1.6 11.3 0.00 0.00 0.00 93 1013.2
20260508125930 20 43 4.8 11.3 0.00 0.00 0.00 93 1012.9
20260508125355 20 64 3.2 11.3 0.00 0.00 0.00 93 1013.2
20260508124851 20 31 1.6 9.7 0.00 0.00 0.00 93 1013.2
20260508124348 20 58 3.2 9.7 0.00 0.00 0.00 93 1013.2
20260508123813 20 70 1.6 9.7 0.00 0.00 0.00 93 1013.5
20260508123312 20 78 1.6 6.4 0.00 0.00 0.00 93 1013.2
20260508122807 20 54 0.0 6.4 0.00 0.00 0.00 93 1013.2
20260508122307 20 67 0.0 6.4 0.00 0.00 0.00 93 1013.2
20260508121731 20 91 1.6 8.0 0.00 0.00 0.00 93 1013.2
20260508121226 20 51 1.6 9.7 0.00 0.00 0.00 93 1013.2
20260508120652 20 85 3.2 9.7 0.00 0.00 0.00 93 1012.9
20260508120118 20 67 3.2 9.7 0.00 0.00 0.00 93 1012.9
20260508115614 20 21 3.2 9.7 0.00 0.00 0.00 93 1012.9
20260508115111 20 35 3.2 8.0 0.00 0.00 0.00 93 1012.5
20260508114608 20 43 3.2 8.0 0.00 0.00 0.00 93 1012.9
20260508114105 20 30 3.2 8.0 0.00 0.00 0.00 93 1013.2
20260508113602 20 49 4.8 8.0 0.00 0.00 0.00 93 1012.9
20260508113059 20 41 3.2 8.0 0.00 0.00 0.00 93 1012.9
20260508112556 20 39 3.2 6.4 0.00 0.00 0.00 93 1013.2
20260508112053 20 37 3.2 6.4 0.00 0.00 0.00 93 1013.2
20260508111519 21 39 1.6 8.0 0.00 0.00 0.00 93 1013.2
20260508110944 21 42 1.6 8.0 0.00 0.00 0.00 93 1013.2
20260508110440 21 37 3.2 8.0 0.00 0.00 0.00 93 1013.2
20260508105906 21 6 1.6 6.4 0.00 0.00 0.00 93 1013.2
20260508105403 21 22 3.2 6.4 0.00 0.00 0.00 93 1012.5
20260508104900 20 80 1.6 6.4 0.00 0.00 0.00 93 1012.2
20260508104326 20 39 1.6 8.0 0.00 0.00 0.00 93 1012.2
20260508103824 20 61 1.6 11.3 0.00 0.00 0.00 93 1012.2
20260508103321 20 56 3.2 11.3 0.00 0.00 0.00 93 1012.5
20260508102818 21 50 3.2 12.9 0.00 0.00 0.00 93 1012.5
20260508102314 21 92 1.6 12.9 0.00 0.00 0.00 93 1012.5
20260508101811 21 35 3.2 9.7 0.00 0.00 0.00 93 1012.9
20260508101308 21 59 3.2 9.7 0.00 0.00 0.00 93 1012.9
20260508100805 21 44 3.2 9.7 0.00 0.00 0.00 93 1012.5
20260508100302 21 63 3.2 6.4 0.00 0.00 0.00 93 1012.5
20260508095759 21 53 3.2 9.7 0.00 0.00 0.00 93 1012.9
20260508095255 21 32 1.6 11.3 0.00 0.00 0.00 92 1012.9
20260508094751 22 29 1.6 11.3 0.00 0.00 0.00 92 1012.9
20260508094248 22 28 1.6 8.0 0.00 0.00 0.00 92 1012.9
20260508093643 22 64 3.2 8.0 0.00 0.00 0.00 92 1012.9
20260508093138 22 46 3.2 4.8 0.00 0.00 0.00 92 1012.9
20260508092635 22 50 1.6 4.8 0.00 0.00 0.00 92 1012.9
20260508092131 22 97 1.6 4.8 0.00 0.00 0.00 92 1012.9
20260508091628 22 32 1.6 8.0 0.00 0.00 0.00 92 1012.9
20260508091125 22 46 1.6 8.0 0.00 0.00 0.00 92 1012.9
20260508090521 22 42 0.0 8.0 0.00 0.00 0.00 91 1012.9
20260508085850 22 53 3.2 6.4 0.00 0.00 0.00 91 1012.9
20260508085347 22 44 1.6 4.8 0.00 0.00 0.00 91 1012.5
20260508084844 22 31 1.6 4.8 0.00 0.00 0.00 91 1012.9
20260508084340 22 31 1.6 4.8 0.00 0.00 0.00 91 1012.9
20260508083837 22 31 1.6 4.8 0.00 0.00 0.00 91 1012.9
20260508083334 22 32 1.6 4.8 0.00 0.00 0.00 90 1012.9
20260508082832 22 48 1.6 4.8 0.00 0.00 0.00 91 1012.9
20260508082329 22 66 3.2 4.8 0.00 0.00 0.00 90 1012.9
20260508081826 23 23 0.0 4.8 0.00 0.00 0.00 90 1012.9
20260508081252 23 24 0.0 6.4 0.00 0.00 0.00 90 1013.2
20260508080748 23 24 1.6 6.4 0.00 0.00 0.00 90 1012.9
20260508080226 23 16 1.6 9.7 0.00 0.00 0.00 89 1012.9
20260508075652 23 39 1.6 9.7 0.00 0.00 0.00 89 1012.5
20260508075118 23 52 1.6 9.7 0.00 0.00 0.00 89 1012.5
20260508074514 23 39 1.6 8.0 0.00 0.00 0.00 89 1012.9
20260508074010 23 12 1.6 8.0 0.00 0.00 0.00 89 1012.9
20260508073507 23 30 3.2 8.0 0.00 0.00 0.00 89 1012.9
20260508073004 23 24 4.8 8.0 0.00 0.00 0.00 89 1012.9
20260508072431 23 58 3.2 6.4 0.00 0.00 0.00 89 1013.2